Location: Bratsk-Energetik
(56.3300°N, 101.7600°E)
Time: 13:38:04
(UTC+08:00)

ISS - Visible Passes

Search period start: 19 December 2018 00:00
Search period end: 29 December 2018 00:00
Orbit: 401 x 408 km, 51.6° (Epoch: 20 December)

Date Brightness Start Highest point End Pass type
(mag) Time Alt. Az. Time Alt. Az. Time Alt. Az.
23 Dec -0.2 08:39:59 10° SSE 08:41:01 11° SE 08:42:04 10° SE visible
25 Dec -0.8 08:30:22 10° SSW 08:32:38 17° SSE 08:34:54 10° ESE visible
26 Dec -0.7 07:39:06 10° S 07:40:37 13° SSE 07:42:10 10° ESE visible
27 Dec -1.5 08:21:33 10° SW 08:24:17 24° SSE 08:27:02 10° ESE visible
28 Dec -1.3 07:29:46 10° SSW 07:32:11 19° SSE 07:34:37 10° ESE visible
